Location: Balaclava NSW 2575, Australia
(34.4510°S, 150.4953°E)
Time: 06:51:35
(UTC+10:00)

X-37B - Pass Details

Date: 10 August 2021
Orbit: 381 x 393 km, 45.0° (Epoch: 29 August)

Event Time Altitude Azimuth Distance (km) Brightness Sun altitude
Rises 18:19:18 0° 249° (WSW) 2,309 5.6 -11.9°
Reaches altitude 10° 18:21:38 10° 262° (W) 1,445 4.7 -12.3°
Maximum altitude 18:24:21 25° 319° (NW) 856 2.9 -12.9°
Drops below altitude 10° 18:27:03 10° 16° (NNE) 1,427 3.4 -13.4°
Enters shadow 18:29:12 - 30° (NNE) 2,226 4.2 -13.9°
